Location: Shenandoah County Park
(38.9356°N, 78.4524°W)
Time: 22:53:04
(UTC-04:00)

Transit 4A - Pass Details

Date: 13 June 2023
Orbit: 862 x 981 km, 66.8° (Epoch: 01 October)

Event Time Altitude Azimuth Distance (km) Brightness Sun altitude
Rises 23:56:32 0° 315° (NW) 3,674 12.0 -25.3°
Reaches altitude 10° 23:59:51 10° 299° (WNW) 2,731 10.9 -25.5°
Maximum altitude 00:04:07 19° 256° (WSW) 2,144 9.8 -25.8°
Enters shadow 00:05:56 17° 235° (SW) 2,259 9.7 -25.9°
